owner,sensor,date,latitude,longitude,vertical_datum,direction_of_sea_water_velocity,sea_water_speed,upward_sea_water_velocity,qcFlag 
TABS,ioos:station:wmo:42051:1,2003-06-01T00:00:00Z,29.6350,-93.6417,2.0,95.42949835,20.08009213,-99999.0,'11111222,11111222,99999999' 
TABS,ioos:station:wmo:42051:1,2003-06-01T00:30:00Z,29.6350,-93.6417,2.0,95.70816683,23.6271581,-99999.0,'11111222,11111222,99999999' 
TABS,ioos:station:wmo:42051:1,2003-06-01T01:00:00Z,29.6350,-93.6417,2.0,89.76450751,24.33020551,-99999.0,'11111222,11111222,99999999' 
TABS,ioos:station:wmo:42051:1,2003-06-01T01:30:00Z,29.6350,-93.6417,2.0,92.65770441,22.64435691,-99999.0,'11111222,11111222,99999999' 
TABS,ioos:station:wmo:42051:1,2003-06-01T02:00:00Z,29.6350,-93.6417,2.0,94.35627981,23.82884177,-99999.0,'11111222,11111222,99999999' 
TABS,ioos:station:wmo:42051:1,2003-06-01T02:30:00Z,29.6350,-93.6417,2.0,94.46213756,24.935581,-99999.0,'11111222,11111222,99999999' 
TABS,ioos:station:wmo:42051:1,2003-06-01T03:00:00Z,29.6350,-93.6417,2.0,90.2279051,25.14019889,-99999.0,'11111222,11111222,99999999' 
TABS,ioos:station:wmo:42051:1,2003-06-01T03:30:00Z,29.6350,-93.6417,2.0,91.87074607,26.34404107,-99999.0,'11111222,11111222,99999999' 
TABS,ioos:station:wmo:42051:1,2003-06-01T04:00:00Z,29.6350,-93.6417,2.0,95.2060386,26.78047423,-99999.0,'11111222,11111222,99999999' 
TABS,ioos:station:wmo:42051:1,2003-06-01T04:30:00Z,29.6350,-93.6417,2.0,90.97416406,24.70357059,-99999.0,'11111222,11111222,99999999' 
TABS,ioos:station:wmo:42051:1,2003-06-01T05:00:00Z,29.6350,-93.6417,2.0,86.9703388,24.97490741,-99999.0,'11111222,11111222,99999999' 
TABS,ioos:station:wmo:42051:1,2003-06-01T05:30:00Z,29.6350,-93.6417,2.0,84.79045938,24.00917533,-99999.0,'11111222,11111222,99999999' 
TABS,ioos:station:wmo:42051:1,2003-06-01T06:00:00Z,29.6350,-93.6417,2.0,80.76571913,25.61192105,-99999.0,'11111222,11111222,99999999' 
TABS,ioos:station:wmo:42051:1,2003-06-01T06:30:00Z,29.6350,-93.6417,2.0,75.01934851,24.72016383,-99999.0,'11111222,11111222,99999999' 
TABS,ioos:station:wmo:42051:1,2003-06-01T07:00:00Z,29.6350,-93.6417,2.0,79.22890861,24.39988729,-99999.0,'11111222,11111222,99999999' 
TABS,ioos:station:wmo:42051:1,2003-06-01T07:30:00Z,29.6350,-93.6417,2.0,78.98093232,25.11299464,-99999.0,'11111222,11111222,99999999' 
TABS,ioos:station:wmo:42051:1,2003-06-01T08:00:00Z,29.6350,-93.6417,2.0,84.00452064,24.41353928,-99999.0,'11111222,11111222,99999999' 
TABS,ioos:station:wmo:42051:1,2003-06-01T08:30:00Z,29.6350,-93.6417,2.0,85.27960962,19.80718304,-99999.0,'11111222,11111222,99999999' 
TABS,ioos:station:wmo:42051:1,2003-06-01T09:00:00Z,29.6350,-93.6417,2.0,85.41114564,19.87370625,-99999.0,'11111222,11111222,99999999' 
TABS,ioos:station:wmo:42051:1,2003-06-01T09:30:00Z,29.6350,-93.6417,2.0,72.10006028,20.6600605,-99999.0,'11111222,11111222,99999999' 
TABS,ioos:station:wmo:42051:1,2003-06-01T10:00:00Z,29.6350,-93.6417,2.0,76.4115101,20.17472924,-99999.0,'11111222,11111222,99999999' 
TABS,ioos:station:wmo:42051:1,2003-06-01T10:30:00Z,29.6350,-93.6417,2.0,78.98582494,20.51794337,-99999.0,'11111222,11111222,99999999' 
TABS,ioos:station:wmo:42051:1,2003-06-01T11:00:00Z,29.6350,-93.6417,2.0,78.35319677,20.01203638,-99999.0,'11111222,11111222,99999999' 
TABS,ioos:station:wmo:42051:1,2003-06-01T11:30:00Z,29.6350,-93.6417,2.0,72.55136104,20.9437055,-99999.0,'11111222,11111222,99999999' 
TABS,ioos:station:wmo:42051:1,2003-06-01T12:00:00Z,29.6350,-93.6417,2.0,74.10290389,19.56839288,-99999.0,'11111222,11111222,99999999' 
TABS,ioos:station:wmo:42051:1,2003-06-01T12:30:00Z,29.6350,-93.6417,2.0,87.08397539,22.40901604,-99999.0,'11111222,11111222,99999999' 
TABS,ioos:station:wmo:42051:1,2003-06-01T13:00:00Z,29.6350,-93.6417,2.0,76.90084494,16.01676934,-99999.0,'11111222,11111222,99999999' 
TABS,ioos:station:wmo:42051:1,2003-06-01T13:30:00Z,29.6350,-93.6417,2.0,77.40591813,15.22635872,-99999.0,'11111222,11111222,99999999' 
TABS,ioos:station:wmo:42051:1,2003-06-01T14:00:00Z,29.6350,-93.6417,2.0,82.67304779,14.42780995,-99999.0,'11111222,11111222,99999999' 
TABS,ioos:station:wmo:42051:1,2003-06-01T14:30:00Z,29.6350,-93.6417,2.0,81.82481167,19.76081223,-99999.0,'11111222,11111222,99999999' 
TABS,ioos:station:wmo:42051:1,2003-06-01T15:00:00Z,29.6350,-93.6417,2.0,87.39622542,21.3520444,-99999.0,'11111222,11111222,99999999' 
TABS,ioos:station:wmo:42051:1,2003-06-01T15:30:00Z,29.6350,-93.6417,2.0,91.75788235,23.47104599,-99999.0,'11111222,11111222,99999999' 
TABS,ioos:station:wmo:42051:1,2003-06-01T16:00:00Z,29.6350,-93.6417,2.0,92.90567671,24.46144926,-99999.0,'11111222,11111222,99999999' 
TABS,ioos:station:wmo:42051:1,2003-06-01T16:30:00Z,29.6350,-93.6417,2.0,97.05607954,24.74742815,-99999.0,'11111222,11111222,99999999' 
TABS,ioos:station:wmo:42051:1,2003-06-01T17:00:00Z,29.6350,-93.6417,2.0,102.9193663,19.41138841,-99999.0,'11111222,11111222,99999999' 
TABS,ioos:station:wmo:42051:1,2003-06-01T17:30:00Z,29.6350,-93.6417,2.0,106.8772772,17.56661891,-99999.0,'11111222,11111222,99999999' 
TABS,ioos:station:wmo:42051:1,2003-06-01T18:00:00Z,29.6350,-93.6417,2.0,106.3105389,16.37920633,-99999.0,'11111222,11111222,99999999' 
TABS,ioos:station:wmo:42051:1,2003-06-01T18:30:00Z,29.6350,-93.6417,2.0,96.79930554,18.32890886,-99999.0,'11111222,11111222,99999999' 
TABS,ioos:station:wmo:42051:1,2003-06-01T19:00:00Z,29.6350,-93.6417,2.0,99.74794281,19.785664,-99999.0,'11111222,11111222,99999999' 
TABS,ioos:station:wmo:42051:1,2003-06-01T19:30:00Z,29.6350,-93.6417,2.0,107.3596184,12.13263368,-99999.0,'11111222,11111222,99999999' 
TABS,ioos:station:wmo:42051:1,2003-06-01T20:00:00Z,29.6350,-93.6417,2.0,115.3047252,13.82671689,-99999.0,'11111222,11111222,99999999' 
TABS,ioos:station:wmo:42051:1,2003-06-01T20:30:00Z,29.6350,-93.6417,2.0,118.1624615,17.96708101,-99999.0,'11111222,11111222,99999999' 
TABS,ioos:station:wmo:42051:1,2003-06-01T21:00:00Z,29.6350,-93.6417,2.0,118.0393687,15.29529666,-99999.0,'11111222,11111222,99999999' 
TABS,ioos:station:wmo:42051:1,2003-06-01T21:30:00Z,29.6350,-93.6417,2.0,129.7930898,11.84341167,-99999.0,'11111222,11111222,99999999' 
TABS,ioos:station:wmo:42051:1,2003-06-01T22:00:00Z,29.6350,-93.6417,2.0,109.8477406,14.10804735,-99999.0,'11111222,11111222,99999999' 
TABS,ioos:station:wmo:42051:1,2003-06-01T22:30:00Z,29.6350,-93.6417,2.0,105.4249872,13.30941396,-99999.0,'11111222,11111222,99999999' 
TABS,ioos:station:wmo:42051:1,2003-06-01T23:00:00Z,29.6350,-93.6417,2.0,85.68239127,13.5484501,-99999.0,'11111222,11111222,99999999' 
TABS,ioos:station:wmo:42051:1,2003-06-01T23:30:00Z,29.6350,-93.6417,2.0,83.8553706,13.26621649,-99999.0,'11111222,11111222,99999999' 
TABS,ioos:station:wmo:42051:1,2003-06-02T00:00:00Z,29.6350,-93.6417,2.0,77.70035203,14.64617698,-99999.0,'11111222,11111222,99999999' 
TABS,ioos:station:wmo:42051:1,2003-06-02T00:30:00Z,29.6350,-93.6417,2.0,66.5578514,12.97056668,-99999.0,'11111222,11111222,99999999' 
TABS,ioos:station:wmo:42051:1,2003-06-02T01:00:00Z,29.6350,-93.6417,2.0,61.21812187,16.53244386,-99999.0,'11111222,11111222,99999999' 
TABS,ioos:station:wmo:42051:1,2003-06-02T01:30:00Z,29.6350,-93.6417,2.0,64.45861889,15.77126818,-99999.0,'11111222,11111222,99999999' 
TABS,ioos:station:wmo:42051:1,2003-06-02T02:00:00Z,29.6350,-93.6417,2.0,56.60521659,18.84064224,-99999.0,'11111222,11111222,99999999' 
TABS,ioos:station:wmo:42051:1,2003-06-02T02:30:00Z,29.6350,-93.6417,2.0,53.81462667,18.91934988,-99999.0,'11111222,11111222,99999999' 
TABS,ioos:station:wmo:42051:1,2003-06-02T03:00:00Z,29.6350,-93.6417,2.0,49.15841604,22.2333983,-99999.0,'11111222,11111222,99999999' 
TABS,ioos:station:wmo:42051:1,2003-06-02T03:30:00Z,29.6350,-93.6417,2.0,63.22741893,24.6863525,-99999.0,'11111222,11111222,99999999' 
TABS,ioos:station:wmo:42051:1,2003-06-02T04:00:00Z,29.6350,-93.6417,2.0,58.5111748,25.63497026,-99999.0,'11111222,11111222,99999999' 
TABS,ioos:station:wmo:42051:1,2003-06-02T04:30:00Z,29.6350,-93.6417,2.0,62.24863483,30.02341253,-99999.0,'11111222,11111222,99999999' 
TABS,ioos:station:wmo:42051:1,2003-06-02T05:00:00Z,29.6350,-93.6417,2.0,58.61820379,29.61173416,-99999.0,'11111222,11111222,99999999' 
TABS,ioos:station:wmo:42051:1,2003-06-02T05:30:00Z,29.6350,-93.6417,2.0,59.80249257,28.72858159,-99999.0,'11111222,11111222,99999999' 
TABS,ioos:station:wmo:42051:1,2003-06-02T06:00:00Z,29.6350,-93.6417,2.0,56.86192218,28.79304951,-99999.0,'11111222,11111222,99999999' 
TABS,ioos:station:wmo:42051:1,2003-06-02T06:30:00Z,29.6350,-93.6417,2.0,59.62375985,30.27623656,-99999.0,'11111222,11111222,99999999' 
TABS,ioos:station:wmo:42051:1,2003-06-02T07:00:00Z,29.6350,-93.6417,2.0,55.60556561,24.58894467,-99999.0,'11111222,11111222,99999999' 
TABS,ioos:station:wmo:42051:1,2003-06-02T07:30:00Z,29.6350,-93.6417,2.0,63.17242036,25.37069372,-99999.0,'11111222,11111222,99999999' 
TABS,ioos:station:wmo:42051:1,2003-06-02T08:00:00Z,29.6350,-93.6417,2.0,59.68747609,22.03213108,-99999.0,'11111222,11111222,99999999' 
TABS,ioos:station:wmo:42051:1,2003-06-02T08:30:00Z,29.6350,-93.6417,2.0,58.32119065,27.34414928,-99999.0,'11111222,11111222,99999999' 
TABS,ioos:station:wmo:42051:1,2003-06-02T09:00:00Z,29.6350,-93.6417,2.0,63.94437922,26.15855692,-99999.0,'11111222,11111222,99999999' 
TABS,ioos:station:wmo:42051:1,2003-06-02T09:30:00Z,29.6350,-93.6417,2.0,64.72894308,21.78485713,-99999.0,'11111222,11111222,99999999' 
TABS,ioos:station:wmo:42051:1,2003-06-02T10:00:00Z,29.6350,-93.6417,2.0,61.23045939,20.11266516,-99999.0,'11111222,11111222,99999999' 
TABS,ioos:station:wmo:42051:1,2003-06-02T10:30:00Z,29.6350,-93.6417,2.0,78.12105533,21.32672033,-99999.0,'11111222,11111222,99999999' 
TABS,ioos:station:wmo:42051:1,2003-06-02T11:00:00Z,29.6350,-93.6417,2.0,71.13140971,18.80027925,-99999.0,'11111222,11111222,99999999' 
TABS,ioos:station:wmo:42051:1,2003-06-02T11:30:00Z,29.6350,-93.6417,2.0,82.76952244,16.8439455,-99999.0,'11111222,11111222,99999999' 
TABS,ioos:station:wmo:42051:1,2003-06-02T12:00:00Z,29.6350,-93.6417,2.0,81.88097332,14.65690963,-99999.0,'11111222,11111222,99999999' 
TABS,ioos:station:wmo:42051:1,2003-06-02T12:30:00Z,29.6350,-93.6417,2.0,82.02239972,17.00456409,-99999.0,'11111222,11111222,99999999' 
TABS,ioos:station:wmo:42051:1,2003-06-02T13:00:00Z,29.6350,-93.6417,2.0,79.50109239,13.99428812,-99999.0,'11111222,11111222,99999999' 
TABS,ioos:station:wmo:42051:1,2003-06-02T13:30:00Z,29.6350,-93.6417,2.0,82.72874499,9.718153117,-99999.0,'11133222,11111222,99999999' 
TABS,ioos:station:wmo:42051:1,2003-06-02T14:00:00Z,29.6350,-93.6417,2.0,68.14675894,12.30417815,-99999.0,'11111222,11111222,99999999' 
TABS,ioos:station:wmo:42051:1,2003-06-02T14:30:00Z,29.6350,-93.6417,2.0,77.5748047,13.19915528,-99999.0,'11111222,11111222,99999999' 
TABS,ioos:station:wmo:42051:1,2003-06-02T15:00:00Z,29.6350,-93.6417,2.0,78.44280072,13.17716586,-99999.0,'11111222,11111222,99999999' 
TABS,ioos:station:wmo:42051:1,2003-06-02T15:30:00Z,29.6350,-93.6417,2.0,67.29146275,16.88925102,-99999.0,'11111222,11111222,99999999' 
TABS,ioos:station:wmo:42051:1,2003-06-02T16:00:00Z,29.6350,-93.6417,2.0,72.61038137,14.38759535,-99999.0,'11111222,11111222,99999999' 
TABS,ioos:station:wmo:42051:1,2003-06-02T16:30:00Z,29.6350,-93.6417,2.0,61.50912862,15.30334931,-99999.0,'11111222,11111222,99999999' 
TABS,ioos:station:wmo:42051:1,2003-06-02T17:00:00Z,29.6350,-93.6417,2.0,73.5947531,14.37524608,-99999.0,'11111222,11111222,99999999' 
TABS,ioos:station:wmo:42051:1,2003-06-02T17:30:00Z,29.6350,-93.6417,2.0,73.62928838,17.20763203,-99999.0,'11111222,11111222,99999999' 
TABS,ioos:station:wmo:42051:1,2003-06-02T18:00:00Z,29.6350,-93.6417,2.0,58.57396192,15.72693231,-99999.0,'11111222,11111222,99999999' 
TABS,ioos:station:wmo:42051:1,2003-06-02T18:30:00Z,29.6350,-93.6417,2.0,40.99992882,12.163585,-99999.0,'11111222,11111222,99999999' 
TABS,ioos:station:wmo:42051:1,2003-06-02T19:00:00Z,29.6350,-93.6417,2.0,57.24293617,14.13840868,-99999.0,'11111222,11111222,99999999' 
TABS,ioos:station:wmo:42051:1,2003-06-02T19:30:00Z,29.6350,-93.6417,2.0,53.30733545,14.87807111,-99999.0,'11111222,11111222,99999999' 
TABS,ioos:station:wmo:42051:1,2003-06-02T20:00:00Z,29.6350,-93.6417,2.0,59.8052206,16.7414844,-99999.0,'11111222,11111222,99999999' 
TABS,ioos:station:wmo:42051:1,2003-06-02T20:30:00Z,29.6350,-93.6417,2.0,56.39177869,13.60403617,-99999.0,'11111222,11111222,99999999' 
TABS,ioos:station:wmo:42051:1,2003-06-02T21:00:00Z,29.6350,-93.6417,2.0,64.48828944,16.78676264,-99999.0,'11111222,11111222,99999999' 
TABS,ioos:station:wmo:42051:1,2003-06-02T21:30:00Z,29.6350,-93.6417,2.0,66.96599094,16.91890363,-99999.0,'11111222,11111222,99999999' 
TABS,ioos:station:wmo:42051:1,2003-06-02T22:00:00Z,29.6350,-93.6417,2.0,83.50348033,15.37875157,-99999.0,'11111222,11111222,99999999' 
TABS,ioos:station:wmo:42051:1,2003-06-02T22:30:00Z,29.6350,-93.6417,2.0,77.68501032,8.720665112,-99999.0,'11133222,11111222,99999999' 
TABS,ioos:station:wmo:42051:1,2003-06-02T23:00:00Z,29.6350,-93.6417,2.0,77.34062282,9.992927499,-99999.0,'11133222,11111222,99999999' 
TABS,ioos:station:wmo:42051:1,2003-06-02T23:30:00Z,29.6350,-93.6417,2.0,86.10096359,8.970763624,-99999.0,'11133222,11111222,99999999' 
TABS,ioos:station:wmo:42051:1,2003-06-03T00:00:00Z,29.6350,-93.6417,2.0,77.76250129,14.29481724,-99999.0,'11111222,11111222,99999999' 
TABS,ioos:station:wmo:42051:1,2003-06-03T00:30:00Z,29.6350,-93.6417,2.0,88.26086455,15.15698189,-99999.0,'11111222,11111222,99999999' 
TABS,ioos:station:wmo:42051:1,2003-06-03T01:00:00Z,29.6350,-93.6417,2.0,78.62032526,14.49495429,-99999.0,'11111222,11111222,99999999' 
TABS,ioos:station:wmo:42051:1,2003-06-03T01:30:00Z,29.6350,-93.6417,2.0,85.03027089,20.31637763,-99999.0,'11111222,11111222,99999999' 
TABS,ioos:station:wmo:42051:1,2003-06-03T02:00:00Z,29.6350,-93.6417,2.0,93.88302319,19.34440746,-99999.0,'11111222,11111222,99999999' 
TABS,ioos:station:wmo:42051:1,2003-06-03T02:30:00Z,29.6350,-93.6417,2.0,85.626901,18.8849808,-99999.0,'11111222,11111222,99999999' 
TABS,ioos:station:wmo:42051:1,2003-06-03T03:00:00Z,29.6350,-93.6417,2.0,92.3468688,18.3153624,-99999.0,'11111222,11111222,99999999' 
TABS,ioos:station:wmo:42051:1,2003-06-03T03:30:00Z,29.6350,-93.6417,2.0,99.26124944,23.42535592,-99999.0,'11111222,11111222,99999999' 
TABS,ioos:station:wmo:42051:1,2003-06-03T04:00:00Z,29.6350,-93.6417,2.0,87.81224145,22.26623004,-99999.0,'11111222,11111222,99999999' 
TABS,ioos:station:wmo:42051:1,2003-06-03T04:30:00Z,29.6350,-93.6417,2.0,92.26701497,24.26899462,-99999.0,'11111222,11111222,99999999' 
TABS,ioos:station:wmo:42051:1,2003-06-03T07:30:00Z,29.6350,-93.6417,2.0,83.23437689,17.99531328,-99999.0,'11111222,11111222,99999999' 
TABS,ioos:station:wmo:42051:1,2003-06-03T08:00:00Z,29.6350,-93.6417,2.0,89.3682106,17.23104756,-99999.0,'11111222,11111222,99999999' 
TABS,ioos:station:wmo:42051:1,2003-06-03T08:30:00Z,29.6350,-93.6417,2.0,75.6195917,14.93803869,-99999.0,'11111222,11111222,99999999' 
TABS,ioos:station:wmo:42051:1,2003-06-03T09:00:00Z,29.6350,-93.6417,2.0,106.9051186,13.85887802,-99999.0,'11111222,11111222,99999999' 
TABS,ioos:station:wmo:42051:1,2003-06-03T09:30:00Z,29.6350,-93.6417,2.0,57.89086109,6.434197697,-99999.0,'11133222,11111222,99999999' 
TABS,ioos:station:wmo:42051:1,2003-06-03T10:00:00Z,29.6350,-93.6417,2.0,126.4055336,9.13229982,-99999.0,'11133222,11111222,99999999' 
TABS,ioos:station:wmo:42051:1,2003-06-03T10:30:00Z,29.6350,-93.6417,2.0,89.19983351,7.16069829,-99999.0,'11133222,11111222,99999999' 
TABS,ioos:station:wmo:42051:1,2003-06-03T11:00:00Z,29.6350,-93.6417,2.0,83.65085241,7.053261657,-99999.0,'11133222,11111222,99999999' 
TABS,ioos:station:wmo:42051:1,2003-06-03T11:30:00Z,29.6350,-93.6417,2.0,69.2921493,5.740888433,-99999.0,'11133222,11111222,99999999' 
TABS,ioos:station:wmo:42051:1,2003-06-03T12:00:00Z,29.6350,-93.6417,2.0,59.89546005,6.519394144,-99999.0,'11133222,11111222,99999999' 
TABS,ioos:station:wmo:42051:1,2003-06-03T12:30:00Z,29.6350,-93.6417,2.0,105.0485793,5.353596922,-99999.0,'11133222,11111222,99999999' 
TABS,ioos:station:wmo:42051:1,2003-06-03T13:00:00Z,29.6350,-93.6417,2.0,101.9518472,5.601428389,-99999.0,'11133222,11111222,99999999' 
TABS,ioos:station:wmo:42051:1,2003-06-03T13:30:00Z,29.6350,-93.6417,2.0,109.283668,4.269543301,-99999.0,'11133222,11111222,99999999' 
TABS,ioos:station:wmo:42051:1,2003-06-03T14:00:00Z,29.6350,-93.6417,2.0,120.4839721,4.711231262,-99999.0,'11133222,11111222,99999999' 
TABS,ioos:station:wmo:42051:1,2003-06-03T14:30:00Z,29.6350,-93.6417,2.0,131.3286808,9.055407224,-99999.0,'11133222,11111222,99999999' 
TABS,ioos:station:wmo:42051:1,2003-06-03T15:00:00Z,29.6350,-93.6417,2.0,120.6224169,7.774168766,-99999.0,'11133222,11111222,99999999' 
TABS,ioos:station:wmo:42051:1,2003-06-03T15:30:00Z,29.6350,-93.6417,2.0,111.8715983,10.60321178,-99999.0,'11111222,11111222,99999999' 
TABS,ioos:station:wmo:42051:1,2003-06-03T16:00:00Z,29.6350,-93.6417,2.0,100.7556909,7.501793119,-99999.0,'11133222,11111222,99999999' 
TABS,ioos:station:wmo:42051:1,2003-06-03T16:30:00Z,29.6350,-93.6417,2.0,112.354863,8.650092485,-99999.0,'11133222,11111222,99999999' 
TABS,ioos:station:wmo:42051:1,2003-06-03T17:00:00Z,29.6350,-93.6417,2.0,105.247122,6.312186626,-99999.0,'11133222,11111222,99999999' 
TABS,ioos:station:wmo:42051:1,2003-06-03T17:30:00Z,29.6350,-93.6417,2.0,211.792615,4.859063696,-99999.0,'11133222,11111222,99999999' 
TABS,ioos:station:wmo:42051:1,2003-06-03T18:00:00Z,29.6350,-93.6417,2.0,167.6307569,5.835451996,-99999.0,'11133222,11111222,99999999' 
TABS,ioos:station:wmo:42051:1,2003-06-03T18:30:00Z,29.6350,-93.6417,2.0,155.7721009,2.631805464,-99999.0,'11133222,11111222,99999999' 
TABS,ioos:station:wmo:42051:1,2003-06-03T19:00:00Z,29.6350,-93.6417,2.0,186.9786611,5.349635502,-99999.0,'11133222,11111222,99999999' 
TABS,ioos:station:wmo:42051:1,2003-06-03T19:30:00Z,29.6350,-93.6417,2.0,213.2373048,2.809644106,-99999.0,'11133222,11111222,99999999' 
TABS,ioos:station:wmo:42051:1,2003-06-03T20:00:00Z,29.6350,-93.6417,2.0,140.3362024,2.585072533,-99999.0,'11133222,11111222,99999999' 
TABS,ioos:station:wmo:42051:1,2003-06-03T20:30:00Z,29.6350,-93.6417,2.0,126.2187526,2.640170449,-99999.0,'11133222,11111222,99999999' 
TABS,ioos:station:wmo:42051:1,2003-06-03T21:00:00Z,29.6350,-93.6417,2.0,133.4645028,3.430699637,-99999.0,'11133222,11111222,99999999' 
TABS,ioos:station:wmo:42051:1,2003-06-03T21:30:00Z,29.6350,-93.6417,2.0,175.9715353,2.847033544,-99999.0,'11133222,11111222,99999999' 
TABS,ioos:station:wmo:42051:1,2003-06-03T22:00:00Z,29.6350,-93.6417,2.0,141.1321029,2.58156929,-99999.0,'11133222,11111222,99999999' 
TABS,ioos:station:wmo:42051:1,2003-06-03T22:30:00Z,29.6350,-93.6417,2.0,219.6769461,2.286744411,-99999.0,'11133222,11111222,99999999' 
TABS,ioos:station:wmo:42051:1,2003-06-03T23:00:00Z,29.6350,-93.6417,2.0,239.8207177,4.256994245,-99999.0,'11133222,11111222,99999999' 
TABS,ioos:station:wmo:42051:1,2003-06-03T23:30:00Z,29.6350,-93.6417,2.0,152.0327394,1.279413928,-99999.0,'11133222,11111222,99999999' 
TABS,ioos:station:wmo:42051:1,2003-06-04T00:00:00Z,29.6350,-93.6417,2.0,88.64681121,1.270354281,-99999.0,'11133222,11111222,99999999' 
TABS,ioos:station:wmo:42051:1,2003-06-04T00:30:00Z,29.6350,-93.6417,2.0,85.75537113,2.567041098,-99999.0,'11133222,11111222,99999999' 
TABS,ioos:station:wmo:42051:1,2003-06-04T01:00:00Z,29.6350,-93.6417,2.0,52.4866703,5.698359413,-99999.0,'11133222,11111222,99999999' 
TABS,ioos:station:wmo:42051:1,2003-06-04T01:30:00Z,29.6350,-93.6417,2.0,73.46021468,5.163661492,-99999.0,'11133222,11111222,99999999' 
TABS,ioos:station:wmo:42051:1,2003-06-04T02:00:00Z,29.6350,-93.6417,2.0,288.0150727,5.173625421,-99999.0,'11133222,11111222,99999999' 
TABS,ioos:station:wmo:42051:1,2003-06-04T02:30:00Z,29.6350,-93.6417,2.0,258.7104248,16.24430054,-99999.0,'11111222,11111222,99999999' 
TABS,ioos:station:wmo:42051:1,2003-06-04T03:00:00Z,29.6350,-93.6417,2.0,250.9995065,10.25892782,-99999.0,'11111222,11111222,99999999' 
TABS,ioos:station:wmo:42051:1,2003-06-04T03:30:00Z,29.6350,-93.6417,2.0,288.7691836,7.055161231,-99999.0,'11133222,11111222,99999999' 
TABS,ioos:station:wmo:42051:1,2003-06-04T04:00:00Z,29.6350,-93.6417,2.0,203.6528993,4.13759592,-99999.0,'11133222,11111222,99999999' 
TABS,ioos:station:wmo:42051:1,2003-06-04T04:30:00Z,29.6350,-93.6417,2.0,326.5677285,6.171102009,-99999.0,'11133222,11111222,99999999' 
TABS,ioos:station:wmo:42051:1,2003-06-04T05:00:00Z,29.6350,-93.6417,2.0,334.646516,10.78920294,-99999.0,'11111222,11111222,99999999' 
TABS,ioos:station:wmo:42051:1,2003-06-04T05:30:00Z,29.6350,-93.6417,2.0,332.0186163,14.47178289,-99999.0,'11111222,11111222,99999999' 
TABS,ioos:station:wmo:42051:1,2003-06-04T06:00:00Z,29.6350,-93.6417,2.0,318.5858271,8.253950569,-99999.0,'11133222,11111222,99999999' 
TABS,ioos:station:wmo:42051:1,2003-06-04T06:30:00Z,29.6350,-93.6417,2.0,293.5118896,10.57820401,-99999.0,'11111222,11111222,99999999' 
TABS,ioos:station:wmo:42051:1,2003-06-04T07:00:00Z,29.6350,-93.6417,2.0,282.4850068,14.06252111,-99999.0,'11111222,11111222,99999999' 
TABS,ioos:station:wmo:42051:1,2003-06-04T07:30:00Z,29.6350,-93.6417,2.0,277.9407843,17.08379349,-99999.0,'11111222,11111222,99999999' 
TABS,ioos:station:wmo:42051:1,2003-06-04T08:00:00Z,29.6350,-93.6417,2.0,275.1564468,18.91654302,-99999.0,'11111222,11111222,99999999' 
TABS,ioos:station:wmo:42051:1,2003-06-04T08:30:00Z,29.6350,-93.6417,2.0,282.8414418,22.09252589,-99999.0,'11111222,11111222,99999999' 
TABS,ioos:station:wmo:42051:1,2003-06-04T09:00:00Z,29.6350,-93.6417,2.0,288.9136992,24.61918967,-99999.0,'11111222,11111222,99999999' 
TABS,ioos:station:wmo:42051:1,2003-06-04T09:30:00Z,29.6350,-93.6417,2.0,299.5354741,22.6997489,-99999.0,'11111222,11111222,99999999' 
TABS,ioos:station:wmo:42051:1,2003-06-04T10:00:00Z,29.6350,-93.6417,2.0,294.3404063,23.72915506,-99999.0,'11111222,11111222,99999999' 
TABS,ioos:station:wmo:42051:1,2003-06-04T10:30:00Z,29.6350,-93.6417,2.0,275.5061064,31.16376903,-99999.0,'11111222,11111222,99999999' 
TABS,ioos:station:wmo:42051:1,2003-06-04T11:00:00Z,29.6350,-93.6417,2.0,283.0025854,34.00175584,-99999.0,'11111222,11111222,99999999' 
TABS,ioos:station:wmo:42051:1,2003-06-04T11:30:00Z,29.6350,-93.6417,2.0,285.6381297,29.41893608,-99999.0,'11111222,11111222,99999999' 
TABS,ioos:station:wmo:42051:1,2003-06-04T12:00:00Z,29.6350,-93.6417,2.0,284.5754631,25.78995347,-99999.0,'11111222,11111222,99999999' 
TABS,ioos:station:wmo:42051:1,2003-06-04T12:30:00Z,29.6350,-93.6417,2.0,282.6512246,26.48293035,-99999.0,'11111222,11111222,99999999' 
TABS,ioos:station:wmo:42051:1,2003-06-04T13:00:00Z,29.6350,-93.6417,2.0,286.372396,22.13764215,-99999.0,'11111222,11111222,99999999' 
TABS,ioos:station:wmo:42051:1,2003-06-04T13:30:00Z,29.6350,-93.6417,2.0,286.9502739,23.42769728,-99999.0,'11111222,11111222,99999999' 
TABS,ioos:station:wmo:42051:1,2003-06-04T14:00:00Z,29.6350,-93.6417,2.0,317.2183302,19.18403764,-99999.0,'11111222,11111222,99999999' 
TABS,ioos:station:wmo:42051:1,2003-06-04T14:30:00Z,29.6350,-93.6417,2.0,312.6646571,15.09512835,-99999.0,'11111222,11111222,99999999' 
TABS,ioos:station:wmo:42051:1,2003-06-04T15:00:00Z,29.6350,-93.6417,2.0,314.4343953,17.89774567,-99999.0,'11111222,11111222,99999999' 
TABS,ioos:station:wmo:42051:1,2003-06-04T15:30:00Z,29.6350,-93.6417,2.0,323.320119,15.10008278,-99999.0,'11111222,11111222,99999999' 
TABS,ioos:station:wmo:42051:1,2003-06-04T16:00:00Z,29.6350,-93.6417,2.0,312.2545672,13.87522252,-99999.0,'11111222,11111222,99999999' 
TABS,ioos:station:wmo:42051:1,2003-06-04T16:30:00Z,29.6350,-93.6417,2.0,326.0202742,20.82648554,-99999.0,'11111222,11111222,99999999' 
TABS,ioos:station:wmo:42051:1,2003-06-05T02:30:00Z,29.6350,-93.6417,2.0,260.3179433,19.32524256,-99999.0,'11111222,11111222,99999999' 
TABS,ioos:station:wmo:42051:1,2003-06-05T03:00:00Z,29.6350,-93.6417,2.0,301.5398318,16.55559422,-99999.0,'11111222,11111222,99999999' 
TABS,ioos:station:wmo:42051:1,2003-06-05T03:30:00Z,29.6350,-93.6417,2.0,281.9259209,10.4045615,-99999.0,'11111222,11111222,99999999' 
TABS,ioos:station:wmo:42051:1,2003-06-05T04:00:00Z,29.6350,-93.6417,2.0,271.8181756,16.70840806,-99999.0,'11111222,11111222,99999999' 